Regional Weather Roundup
Issued by NWS Charleston, SC

Current Version | Previous Version | Graphics & Text | Print | Product List | Glossary On
Versions: 1 2 3 4 5 6 7 8 9 10 11 12 13 14 15 16 17 18 19 20 21 22 23 24 25 26 27 28 29 30 31 32 33 34 35 36 37 38 39 40 41 42 43 44 45 46 47 48 49 50
000 ASUS42 KCHS 220312 RWRCHS REGIONAL WEATHER ROUNDUP NATIONAL WEATHER SERVICE CHARLESTON SC 1100 PM EDT FRI JUL 21 2017 NOTE: "FAIR" INDICATES FEW OR NO CLOUDS BELOW 12,000 FEET WITH NO SIGNIFICANT WEATHER AND/OR OBSTRUCTIONS TO VISIBILITY. NOT ALL STATIONS ARE QUALITY CONTROLLED. USE DATA WITH CAUTION... ESPECIALLY DEWPOINT OBSERVATIONS. SCZ027-030-031-034>040-042>050-220400- ...SOUTHEAST SOUTH CAROLINA... CITY SKY/WX TMP DP RH WIND PRES REMARKS N CHARLESTON CLEAR 78 75 90 S5 30.03F WATERFRONT PRK N/A 82 78 88 SW5 30.01F HX 91 JOHNS ISLAND FAIR 79 77 94 S5 30.04R PINOPOLIS N/A 81 75 83 VRB2 29.96S MONCKS CORNER FAIR 77 73 88 CALM 30.03S SUMMERVILLE FAIR 79 73 83 CALM 30.03F BEAUFORT MCAS CLEAR 82 78 88 S3 30.03S HX 91 BEAUFORT ARPT FAIR 81 75 83 SW6 30.03S HILTON HEAD IS CLEAR 82 77 83 VRB7G13 30.04S HX 91 WALTERBORO CLEAR 77 73 88 CALM 30.04S ALLENDALE NOT AVBL ...SOUTHERN MIDLANDS AND PEE DEE... CITY SKY/WX TMP DP RH WIND PRES REMARKS GEORGETOWN FAIR 77 75 94 SW3 30.05S KINGSTREE FAIR 79 72 78 SE5 30.02S ORANGEBURG CLEAR 79 73 82 SW6 30.03R BARNWELL FAIR 79 75 89 CALM 30.04R AIKEN FAIR 73 70 88 SW3 30.07R MANNING FAIR 81 77 89 W24G30 30.03R COLUMBIA PTCLDY 82 73 74 SW3 30.01S SUMTER PTCLDY 82 74 74 S9 30.00R FLORENCE CLEAR 82 76 81 SW8 30.02R MYRTLE BEACH NOT AVBL N MYRTLE BEACH CLEAR 80 77 90 SW14 30.03R $$ GAZ063-065-086>088-099>101-113>116-118-119-134>141-150-220400- ...SOUTHEAST GEORGIA... CITY SKY/WX TMP DP RH WIND PRES REMARKS SAVANNAH ARPT CLEAR 81 74 79 S7 30.04S HUNTER AAF CLEAR 80 75 83 S5 30.01S FORT STEWART CLEAR 78 72 81 W3 30.02S STATESBORO CLEAR 77 77 100 CALM 30.04F SYLVANIA CLEAR 77 76 95 CALM 30.05F CLAXTON FAIR 76 74 94 CALM 30.04F ...CSRA...CENTRAL AND FAR SOUTHEAST GEORGIA... CITY SKY/WX TMP DP RH WIND PRES REMARKS THOMSON CLOUDY 74 70 88 W5 30.10S AUGUSTA-BUSH CLOUDY 80 76 87 N3 30.03R AUGUSTA-DANIEL MOCLDY 82 71 69 SW6 30.04R SWAINSBORO FAIR 77 73 88 CALM 30.05S VIDALIA CLEAR 75 73 94 CALM 30.05F EASTMAN FAIR 78 76 94 CALM 30.06F HAZLEHURST FAIR 75 75 100 CALM 30.04R ALMA CLEAR 75 73 93 NW5 30.04S WAYCROSS CLEAR 78 78 100 CALM 30.03F JESUP NOT AVBL BAXLEY FAIR 73 73 100 N3 30.04S BRUNSWICK CLEAR 79 73 83 CALM 30.04F SAINT SIMONS CLEAR 82 73 74 CALM 30.04S $$ SCZ027-028-034-036>038-045-046-048>050-GAZ119-141-220400- ...LAKE AND SUPPLEMENTAL COASTAL OBSERVATIONS... STATION/POSITION TIME TEMP WIND PRES WAVE SWELL AIR SEA DIR/SP/G HT/PER HT/PER/DIR (UTC) (F) (DEG/KT/KT) (MB) (FT/S) (FT/S/D) WINYAH BAY 0145 81 210/ 9 1017.0 LAKE MURRAY 0220 83 200/ 9/ 13 1015.2S ACE BASIN NERRS 0145 82 CALM 1017.0 FORT PULASKI 0248 82 86 220/ 8/ 12 1017.4F SAPELO ISLAND 0200 83 220/ 6 1017.0 $$ ANZ835-935-AMZ111-154-330-350-352-354-370-450-454-472-220400- ...C-MAN AND BUOY OBSERVATIONS... STATION/POSITION TIME TEMP WIND PRES WAVE SWELL AIR SEA DIR/SP/G HT/PER HT/PER/DIR (UTC) (F) (DEG/KT/KT) (MB) (FT/S) (FT/S/D) BUOY 41004 0250 83 84 220/ 10/ 12 1016.9R 3/ 8 2/120/ 8 BUOY 41008 0150 82 82 190/ 8/ 10 1016.9 2/ 9 2/120/ 9 FOLLY BEACH CMAN 0200 83 210/ 12/ 13 1017.7R CAPERS NEARSHORE 0208 81 84 220/ 12/ 17 1016.9R FRIPP NEARSHORE 0208 83 84 210/ 12/ 14 1016.8R STATION/POSITION TIME TEMP WIND PRES WAVE SWELL AIR SEA DIR/SP/G HT/PER HT/PER/DIR (UTC) (F) (DEG/KT/KT) (MB) (FT/S) (FT/S/D) 5E ST. MARYS GA 0230 82 N/A 2/ 9 FRYING PAN BUOY 0250 83 84 220/ 16/ 19 1016.8R 3/ 7 2/120/ 7 BUOY 41025 0250 83 84 230/ 17/ 21 1015.7R 4/ 4 2/130/10 CAPE LOOKOUT NC 0200 81 220/ 9/ 16 1016.1R BUOY 41002 0250 83 84 210/ 14/ 16 1018.7S 3/ 9 3/110/ 9 BUOY 41010 0250 84 85 170/ 12/ 14 1018.4R 3/ 8 2/ 90/ 8 ST AUGUSTINE FL 0300 80 83 180/ 7/ 8 1018.1R $$

USA.gov is the U.S. government's official web portal to all federal, state and local government web resources and services.